Flag for Argentina Weather past 2 weeks in Salta, Salta, Argentina

Now
66 °F

Sunny.


Feels Like: 66 °F
Forecast: 45 / 78 °F
Wind: 6 mph from Southeast

Location: Salta Aerodrome

Current Time: Jul 31, 2014 at 12:37:15 PM

Latest Report: Jul 31, 2014 at 12:00 PM


Visibility: 10 mi

Pressure: 30.01 "Hg

Humidity: 52%

Dew point: 48 °F

Location of SaltaLocation

Historic Weather in Salta — Graph

°F

Salta temperature yesterday

Maximum temperature yesterday: 81 °F (at 4:00 PM)
Minimum temperature yesterday: 37 °F (at 6:00 AM)
Average temperature yesterday: 58 °F

Past Weeks' High & Low Weather Summary

 TemperatureHumidityPressure
High86 °F (Jul 21, 4:00 PM)100% (Jul 23, 8:00 AM)30.51 "Hg (Jul 23, 8:00 AM)
Low27 °F (Jul 25, 7:00 AM)3% (Jul 30, 1:00 PM)29.74 "Hg (Jul 21, 4:00 PM)
Average50 °F68%30.14 "Hg
* Reported Jul 16 11:00 AM — Jul 31 11:00 AM, Salta, Weather by CustomWeather, © 2014

Note: Actual official high and low records may vary slightly from our data, if they occured in-between our weather recording intervals... More about our weather records

Advertising

Salta weather history for previous 24 hours

 ConditionsComfort  
Time TempWeatherWind HumidityBarometerVisibility
11:00 AM
Jul 31
63 °FSunny.2 mph59%30.04 "Hg10 mi
10:00 AM55 °FSunny.1 mph77%30.04 "Hg10 mi
9:00 AM45 °FSunny.2 mph93%30.04 "Hg10 mi
8:00 AM45 °FSunny.1 mph93%30.01 "Hg10 mi
7:00 AM43 °FSunny.No wind93%30.01 "Hg10 mi
6:00 AM43 °FClear.No wind93%30.01 "Hg10 mi
5:00 AM43 °FClear.2 mph87%30.01 "Hg10 mi
4:00 AM45 °FClear.No wind87%30.04 "Hg10 mi
3:00 AM46 °FClear.No wind87%30.07 "Hg10 mi
2:00 AM48 °FClear.No wind87%30.09 "Hg10 mi
1:00 AM50 °FClear.No wind88%30.09 "Hg10 mi
12:00 AM54 °FClear.5 mph82%30.09 "Hg10 mi
11:00 PM
Jul 30
57 °FClear.2 mph72%30.09 "Hg10 mi
10:00 PM59 °FClear.6 mph68%30.09 "Hg10 mi
9:00 PM63 °FClear.6 mph64%30.09 "Hg10 mi
8:00 PM64 °FClear.7 mph56%30.07 "Hg10 mi
7:00 PM68 °FClear.10 mph49%30.07 "Hg10 mi
6:00 PM73 °FClear.12 mph33%30.04 "Hg10 mi
5:00 PM79 °FSunny.10 mph17%30.01 "Hg10 mi
4:00 PM81 °FSunny.9 mph16%30.01 "Hg10 mi
3:00 PM79 °FSunny.6 mph24%30.04 "Hg10 mi
2:00 PM77 °FSunny.7 mph24%30.07 "Hg10 mi
1:00 PM73 °FSunny.7 mph3%30.09 "Hg10 mi
12:00 PM64 °FSunny.2 mph49%30.15 "Hg10 mi
Weather by CustomWeather, © 2014

See weather overviewHow to use our weather pages